Regional Weather Roundup
Issued by NWS

Home | Current Version | Previous Version | Graphics & Text | Print | Product List | Glossary On
Versions: 1 2 3 4 5 6 7 8 9 10 11 12 13 14 15 16 17 18 19 20 21 22 23 24 25 26 27 28 29 30 31 32 33 34 35 36 37 38 39 40 41 42 43 44 45 46 47 48 49 50
000
ASUS45 KTFX 260819
RWRMT
MONTANA HOURLY WEATHER ROUNDUP
NATIONAL WEATHER SERVICE GREAT FALLS MT
119 AM MST FRI DEC 26 2014

NOTE: "FAIR" INDICATES FEW OR NO CLOUDS BELOW 12000 FEET WITH NO
SIGNIFICANT WEATHER AND/OR OBSTRUCTIONS TO VISIBILITY.

* THESE STATIONS ARE NOT UNDER NWS QUALITY CONTROL. THEY DO NOT
   REPORT WEATHER SUCH AS PRECIPITATION OR FOG.

MTZ001>007-043-260900-
WEST OF THE DIVIDE
CITY           SKY/WX    TMP DP  RH WIND       PRES   REMARKS
KALISPELL      FOG       25  25 100 CALM      30.03S
MISSOULA       CLOUDY    25  23  92 CALM      30.05S
BUTTE          CLOUDY    10   7  88 SE5       29.94F WCI   1
MULLAN PASS    FOG       21  18  88 NW9       29.92F VSB 1 1/2 WCI  11
* ESSEX        N/A       22  20  92 N/A        N/A
* HAMILTON APT MOCLDY    27  19  72 S5        30.03F WCI  21
* LIBBY APT    CLOUDY    25  21  85 CALM      30.07S
* LINCOLN      N/A       24  18  78 S4G10      N/A
* LOOKOUT PASS N/A       23  22  96 NE6        N/A   WCI  16
* POLSON       N/A       25  24  96 N/A        N/A
* RONAN APT    CLOUDY    28  25  89 N/A        N/A
* SEELEY LAKE  N/A       20  18  92 N1         N/A
* THOMP F APT  CLOUDY    16   5  62 NW12G24    N/A   WCI   3
* YAAK HILL    N/A       27  25  92 N1         N/A
$$

MTZ008-052>055-260900-
SOUTHWEST MONTANA
CITY           SKY/WX    TMP DP  RH WIND       PRES   REMARKS
BOZEMAN        MOCLDY     3   0  87 SW5       29.99S WCI  -7
DILLON         CLOUDY     7   3  83 S8        29.95R WCI  -6
* W YELLOWSTON PTCLDY    -9 -15  74 N/A        N/A
* THREE FORKS  CLEAR      7   7 100 N/A        N/A
* BOULDER HILL N/A       15   8  74 SW8        N/A   WCI   4
* MONIDA PASS  N/A        6   3  87 W6         N/A   WCI  -5
* RAYNOLDS PAS N/A        6   6 100 N4         N/A
* WHITEHALL    N/A        9   4  80 N4         N/A
* WISE RIVER   N/A        9   5  84 NW2        N/A
$$

MTZ009>010-012-014-046-048-049-054-260900-
EAST SLOPES AND CENTRAL MONTANA
CITY           SKY/WX    TMP DP  RH WIND       PRES   REMARKS
CUT BANK       CLOUDY    25  16  69 NW20      29.91R WCI  11
GREAT FALLS    MOCLDY    18  10  71 SW9       29.94S WCI   7
HELENA         CLOUDY    18  14  84 CALM      29.99F
MALMSTROM AFB  MOCLDY    16  12  84 W9        29.97S WCI   5
* CONRAD       PTCLDY     9   7  91 CALM       N/A
* EAST GLACIER N/A       22  15  74 W7G12      N/A   WCI  13
* MONARCH      N/A        9   3  76 S10        N/A   WCI  -5
* PENDROY      N/A       20  10  65 W16        N/A   WCI   6
* SWEET GRASS  N/A       25  16  69 NW14G20    N/A   WCI  13
* WHITE SULPH  N/A        5   1  83 W1         N/A
$$

MTZ011-013-016-021-035-040-045-047-050-051-260900-
NORTH CENTRAL MONTANA
CITY           SKY/WX    TMP DP  RH WIND       PRES   REMARKS
HAVRE          CLOUDY    21  18  88 CALM      29.97S
LEWISTOWN      CLEAR      7   3  83 SE5       29.94S WCI  -2
* N BAR RANCH  CLEAR      5   1  83 W5        29.95S WCI  -5
* CHINOOK      CLOUDY    21  18  88 E3        29.99F
* CHESTER      N/A       12   9  88 SW1        N/A
* DENTON       N/A        5   1  83 S4         N/A
* JUDITH GAP   N/A        6   5  96 SW1        N/A
* LOMA         N/A       13  11  92 SE4        N/A
$$

MTZ017>020-022>027-061-062-260900-
NORTHEAST MONTANA
CITY           SKY/WX    TMP DP  RH WIND       PRES   REMARKS
GLASGOW        CLOUDY    18  12  77 SE14      30.06S WCI   4
GLENDIVE       CLOUDY    19  16  88 CALM      30.06F
JORDAN         CLEAR     25  19  78 W9        30.03F WCI  16
SIDNEY         MOCLDY    12   7  80 NW5       30.11F WCI   4
WOLF POINT     CLOUDY    16  10  77 E3        30.11S
* BEAVER HILL  N/A       14  11  88 N/A        N/A
* CIRCLE       N/A       20  17  88 SE3        N/A
* LINDSAY DVD  N/A       19  16  88 SW4        N/A
* NAVAJO       N/A       12   9  88 N2         N/A
* PLENTYWOOD A CLEAR     12   9  88 W6        30.08S WCI   2
* POPLAR APT   CLEAR     12  10  92 N/A       30.11S
* SACO         N/A       22  18  85 E5         N/A   WCI  15
$$

MTZ028>042-056>058-260900-
SOUTHCENTRAL AND SOUTHEAST MONTANA
CITY           SKY/WX    TMP DP  RH WIND       PRES   REMARKS
BAKER          CLOUDY    19  14  81 N9        30.04S WCI   8
BILLINGS       PTCLDY    21  18  88 W5        29.99F WCI  14
LIVINGSTON     PTCLDY     0  -6  75 W6        29.96S WCI -12
MILES CITY     CLOUDY    23  18  81 E3        30.05F
* BIG TIMBER A PTCLDY     9   3  76 W6        29.96S WCI  -1
* FORSYTH APT  CLEAR     25  18  75 CALM      30.05F
* LAUREL APT   PTCLDY    16   9  74 N/A        N/A
* ROUNDUP APT  CLEAR     19  12  74 N/A        N/A
* ALZADA       N/A       20  17  88 NW6        N/A   WCI  12
* LAME DEER    N/A       16  14  92 SW3        N/A
* REED POINT   N/A        4   2  91 N/A        N/A
* ROSCOE HILL  N/A       14   1  56 S7         N/A   WCI   4
$$

REGIONAL REPORTS...DAKOTAS
CITY           SKY/WX    TMP DP  RH WIND       PRES   REMARKS
WILLISTON      CLOUDY    14   9  80 NW9       30.11S WCI   2
DICKINSON      CLOUDY    19  12  74 NW10      30.02S WCI   8
BEACH          CLOUDY    16  14  92 NW5       30.06S WCI   8
CROSBY         CLOUDY     9   7  91 NW15      30.12S WCI  -8
TIOGA          LGT SNOW  10   9  96 W13       30.10S WCI  -5
WATFORD CITY   LGT SNOW  16  10  77 NW9       30.06F WCI   5
BISMARCK       CLOUDY    25  19  78 NW10      30.05R WCI  15
GRAND FORKS    CLOUDY    25  19  78 N12       30.03S WCI  14
FARGO          CLOUDY    27  19  72 N15       30.01R WCI  15
BUFFALO SD     MOCLDY    19  16  88 NW14      29.94F WCI   5
RAPID CITY     CLOUDY    21  18  88 N16       29.99R WCI   7
$$

REGIONAL REPORTS...WYOMING/IDAHO/WASHINGTON
CITY           SKY/WX    TMP DP  RH WIND       PRES   REMARKS
GILLETTE       CLOUDY    18  16  92 N6        29.95F WCI  10
SHERIDAN       CLOUDY    19  16  88 NW5       29.98F WCI  12
CODY           CLOUDY    18  16  92 CALM      29.91S
YELLOWSTONE LA PTCLDY     7   1  76 VRB5      29.82S WCI  -2
SALMON         CLOUDY    21  18  88 SE3       30.02F
MULLAN PASS    FOG       21  18  88 NW9       29.92S VSB 1 1/2 WCI  11
SAND POINT     MOCLDY    32  32 100 SW5       30.09F WCI  27
SPOKANE        CLOUDY    30  27  89 W12       30.10F WCI  20
$$

REGIONAL REPORTS...ALBERTA
CITY           SKY/WX    TMP DP  RH WIND       PRES   REMARKS
CALGARY        LGT SNOW  21  18  88 N10       30.01R WCI  10
LETHBRIDGE     LGT SNOW  23  21  92 NW10      29.99R VSB 3    WCI  13
MEDICINE HAT   CLOUDY    18  16  92 N8        29.99R WCI   8
EDMONTON       FAIR      10   5  80 W6        30.05S
WATERTON GATE  N/A       25  19  78 N6         N/A   WCI  18
CARDSTON       N/A       25  23  92 N12        N/A   WCI  14
MILK RIVER     N/A       21  19  92 N24G30     N/A   WCI   4
$$

REGIONAL REPORTS...SASKATCHEWAN
CITY           SKY/WX    TMP DP  RH WIND       PRES   REMARKS
SWIFT CURRENT  LGT SNOW   5   3  91 E6        30.00R VSB 2 1/4 WCI  -6
REGINA         CLOUDY    -2  -6  83 N5        30.11S WCI -13
VAL MARIE      N/A       19  18  96 S8         N/A   WCI   9
ASSINIBOIA     N/A        3   0  87 CALM       N/A

$$



USA.gov is the U.S. government's official web portal to all federal, state and local government web resources and services.